This demonstration page uses our WeatherBlox Daily Observations layout. Learn more.

41.55636, -103.73856

Hourly Observations for May 1, 2016

Temp ( °F °C ) Dew Point ( °F °C ) Humidity (%) Winds ( mph kmh ) Pressure ( in mb ) Visibility ( mi km ) Precip ( " mm )
12:05 am 00:05 Cloudy with Light Rain 37 2.8 34 1.1 89 89 N 10 17 30.27 1025 10 16.0934 0 0.0254
12:10 am 00:10 Cloudy with Light Rain 37 3 34 1 87 87 N 9 15 30.27 1025 10 16.0934 0 0
12:48 am 00:48 Cloudy with Light Rain 37 3 34 1 87 87 NNW 7 11 30.27 1025 10 16.0934 0 0
12:53 am 00:53 Cloudy with Light Rain 37 2.8 35 1.7 93 93 NNW 8 13 30.25 1025 10 16.0934 0 0.0254
1:02 am 01:02 Cloudy with Light Rain 37 3 36 2 93 93 NW 7 11 30.27 1025 10 16.0934 0 0
1:53 am 01:53 Cloudy 37 2.8 34 1.1 89 89 NNW 7 11 30.26 1025 10 16.0934 0 0.0254
2:53 am 02:53 Cloudy with Light Rain 38 3.3 34 1.1 86 86 NW 5 7 30.27 1025 10 16.0934 0 0.0254
3:53 am 03:53 Cloudy 38 3.3 34 1.1 86 86 NNW 7 11 30.28 1025 10 16.0934 0.01 0.254
4:53 am 04:53 Cloudy 37 2.8 33 0.6 86 86 NNW 8 13 30.28 1025 10 16.0934 0 0
5:53 am 05:53 Cloudy 37 2.8 33 0.6 86 86 NW 7 11 30.29 1026 10 16.0934 0 0
6:53 am 06:53 Mostly Sunny 39 3.9 33 0.6 79 79 NW 9 15 30.32 1027 10 16.0934 0 0
7:53 am 07:53 Cloudy 40 4.4 33 0.6 77 77 NNW 12 19 30.34 1028 10 16.0934 0 0
8:53 am 08:53 Cloudy 44 6.7 32 0 63 63 NNW 13 20 30.34 1028 10 16.0934 0 0
9:53 am 09:53 Cloudy 46 7.8 28 -2.2 50 50 N 14 22 30.35 1028 10 16.0934 0 0
10:53 am 10:53 Cloudy 48 8.9 29 -1.7 48 48 NNE 14 22 30.35 1028 10 16.0934 0 0
11:53 am 11:53 Mostly Sunny 50 10 27 -2.8 41 41 NE 8 13 30.33 1027 10 16.0934 0 0
12:53 pm 12:53 Mostly Sunny 50 10 28 -2.2 43 43 NNW 12 19 30.31 1027 10 16.0934 0 0
1:53 pm 13:53 Partly Cloudy 50 10 28 -2.2 43 43 N 14 22 30.29 1026 10 16.0934 0 0
2:53 pm 14:53 Mostly Cloudy 51 10.6 29 -1.7 43 43 N 15 24 30.27 1025 10 16.0934 0 0
3:53 pm 15:53 Mostly Cloudy 52 11.1 30 -1.1 43 43 NNE 13 20 30.25 1024 10 16.0934 0 0
4:53 pm 16:53 Mostly Cloudy 54 12.2 30 -1.1 40 40 N 14 22 30.23 1024 10 16.0934 0 0
5:53 pm 17:53 Cloudy with Light Rain 37 3 N/A N/A NNW 14 22 30.15 1021 8 12.87472 0 0
6:53 pm 18:53 Mostly Sunny 52 11.1 29 -1.7 41 41 NNE 6 9 30.23 1024 10 16.0934 0 0
7:53 pm 19:53 Sunny 46 7.8 33 0.6 61 61 NE 5 7 30.25 1024 10 16.0934 0 0
8:53 pm 20:53 Clear 41 5 33 0.6 73 73 SSW 8 13 30.26 1025 10 16.0934 0 0
9:53 pm 21:53 Clear 41 5 32 0 70 70 Calm 30.28 1025 10 16.0934 0 0
10:53 pm 22:53 Clear 37 2.8 31 -0.6 79 79 NNW 10 17 30.28 1025 10 16.0934 0 0
11:53 pm 23:53 Clear 35 1.7 30 -1.1 82 82 NW 8 13 30.28 1025 10 16.0934 0 0

Powered by AerisWeather